Weather History for KIFA - September, 2013

Change the Weather History Date:

Thursday, September 5, 2013

  Actual Average Record
Temperature  
Mean Temperature 76 °F -  
Max Temperature 88 °F 79 °F 95 °F (1990)
Min Temperature 64 °F 54 °F 38 °F (1962)
Cooling Degree Days 11    
Growing Degree Days 26 (Base 50)    
Moisture  
Dew Point 64 °F    
Average Humidity 70    
Maximum Humidity 91    
Minimum Humidity 40    
Precipitation  
Precipitation 0.00 in - - ()
Sea Level Pressure  
Sea Level Pressure 30.18 in    
Wind  
Wind Speed 1 mph (ESE)    
Max Wind Speed 6 mph    
Max Gust Speed -    
Visibility 10 miles    
Events      
Averages and records for this station are not official NWS values.
T = Trace of Precipitation, MM = Missing Value Source: NWS Daily Summary

Daily Weather History Graph

Daily Weather History Graph

Search for Another Location

Airport or City:

Trip Planner

Search our weather history database for the weather conditions in past years. The results will help you decide how hot, cold, wet, or windy it might be!

Date:

Astronomy

Sep. 05, 2013 Rise Set
Actual Time 6:42 AM CDT 7:39 PM CDT
Civil Twilight 6:13 AM CDT 8:08 PM CDT
Nautical Twilight 5:39 AM CDT 8:42 PM CDT
Astronomical Twilight 5:04 AM CDT 9:18 PM CDT
Moon 6:56 AM CDT (9/5) 7:29 PM CDT (9/5)
Length of Visible Light 13h 54m
Length of Day
12h 57m
New Moon, 0% of the Moon is Illuminated
Sep 5
New Moon
Sep 12
First Quarter
Sep 19
Full
Sep 26
Last Quarter
Oct 4
New

Hourly Weather History & Observations

Time (CDT) Temp. Heat Index Dew Point Humidity Pressure Visibility Wind Dir Wind Speed Gust Speed Precip Events Conditions
12:15 AM 68.0 °F - 62.6 °F 83% 30.14 in 10.0 mi Calm Calm - N/A   Clear
12:35 AM 66.7 °F - 62.2 °F 85% 30.14 in 10.0 mi Calm Calm - N/A   Clear
12:55 AM 65.7 °F - 61.7 °F 87% 30.15 in 10.0 mi Calm Calm - N/A   Clear
1:15 AM 66.2 °F - 61.5 °F 85% 30.15 in 10.0 mi Calm Calm - N/A   Clear
1:35 AM 66.2 °F - 61.2 °F 84% 30.15 in 10.0 mi Calm Calm - N/A   Clear
1:55 AM 66.4 °F - 61.2 °F 83% 30.16 in 10.0 mi West 3.5 mph - N/A   Clear
2:15 AM 66.0 °F - 61.3 °F 85% 30.16 in 10.0 mi West 4.6 mph - N/A   Clear
2:35 AM 65.1 °F - 61.0 °F 86% 30.16 in 10.0 mi Calm Calm - N/A   Clear
2:55 AM 64.8 °F - 61.0 °F 88% 30.16 in 10.0 mi Calm Calm - N/A   Clear
3:15 AM 64.4 °F - 60.8 °F 88% 30.16 in 10.0 mi Calm Calm - N/A   Clear
3:35 AM 64.4 °F - 60.8 °F 88% 30.16 in 10.0 mi Calm Calm - N/A   Clear
3:55 AM 65.3 °F - 61.2 °F 86% 30.16 in 10.0 mi Calm Calm - N/A   Clear
4:15 AM 64.9 °F - 61.3 °F 88% 30.16 in 10.0 mi Calm Calm - N/A   Clear
4:35 AM 64.6 °F - 61.3 °F 89% 30.16 in 10.0 mi Calm Calm - N/A   Clear
4:55 AM 64.6 °F - 60.8 °F 88% 30.17 in 10.0 mi Calm Calm - N/A   Clear
5:15 AM 64.6 °F - 61.0 °F 88% 30.17 in 10.0 mi Calm Calm - N/A   Clear
5:35 AM 64.6 °F - 61.0 °F 88% 30.17 in 10.0 mi Calm Calm - N/A   Clear
5:55 AM 64.8 °F - 61.7 °F 90% 30.17 in 10.0 mi Calm Calm - N/A   Clear
6:15 AM 64.8 °F - 61.7 °F 90% 30.18 in 10.0 mi Calm Calm - N/A   Clear
6:35 AM 65.7 °F - 61.7 °F 87% 30.19 in 10.0 mi Calm Calm - N/A   Clear
6:55 AM 65.7 °F - 61.9 °F 88% 30.19 in 10.0 mi Calm Calm - N/A   Clear
7:15 AM 66.0 °F - 62.2 °F 88% 30.19 in 10.0 mi Calm Calm - N/A   Clear
7:35 AM 67.1 °F - 62.6 °F 85% 30.19 in 10.0 mi Calm Calm - N/A   Clear
7:55 AM 67.8 °F - 63.7 °F 87% 30.21 in 10.0 mi Calm Calm - N/A   Clear
8:15 AM 69.4 °F - 64.0 °F 83% 30.21 in 10.0 mi Calm Calm - N/A   Clear
8:35 AM 70.3 °F - 64.4 °F 81% 30.21 in 10.0 mi Calm Calm - N/A   Clear
8:55 AM 72.3 °F - 64.8 °F 77% 30.21 in 10.0 mi Calm Calm - N/A   Clear
9:15 AM 74.5 °F - 64.9 °F 72% 30.21 in 10.0 mi Calm Calm - N/A   Clear
9:35 AM 76.6 °F - 64.8 °F 67% 30.22 in 10.0 mi Calm Calm - N/A   Clear
9:55 AM 79.2 °F - 64.0 °F 60% 30.22 in 10.0 mi Calm Calm - N/A   Clear
10:15 AM 80.6 °F 82.0 °F 63.5 °F 56% 30.22 in 10.0 mi WNW 4.6 mph - N/A   Clear
10:35 AM 80.8 °F 82.0 °F 62.6 °F 54% 30.22 in 10.0 mi WNW 5.8 mph - N/A   Clear
10:55 AM 81.5 °F 82.7 °F 63.0 °F 53% 30.22 in 10.0 mi West 5.8 mph - N/A   Clear
11:15 AM 82.2 °F 83.2 °F 62.2 °F 51% 30.22 in 10.0 mi NNW 3.5 mph - N/A   Clear
11:35 AM 82.8 °F 83.6 °F 62.6 °F 50% 30.22 in 10.0 mi Calm Calm - N/A   Clear
11:55 AM 83.7 °F 84.3 °F 62.1 °F 48% 30.22 in 10.0 mi Calm Calm - N/A   Clear
12:15 PM 84.6 °F 85.4 °F 62.8 °F 48% 30.22 in 10.0 mi Calm Calm - N/A   Clear
12:35 PM 84.7 °F 84.6 °F 59.9 °F 43% 30.21 in 10.0 mi Calm Calm - N/A   Clear
12:55 PM 85.8 °F 85.4 °F 59.7 °F 41% 30.20 in 10.0 mi Calm Calm - N/A   Clear
1:15 PM 86.7 °F 86.8 °F 60.8 °F 42% 30.20 in 10.0 mi Calm Calm - N/A   Clear
1:35 PM 86.5 °F 86.5 °F 60.8 °F 42% 30.20 in 10.0 mi Calm Calm - N/A   Clear
1:55 PM 86.9 °F 86.7 °F 60.8 °F 41% 30.19 in 10.0 mi Calm Calm - N/A   Clear
2:15 PM 87.1 °F 87.0 °F 60.6 °F 41% 30.19 in 10.0 mi East 3.5 mph - N/A   Clear
2:35 PM 87.4 °F 87.4 °F 61.2 °F 41% 30.19 in 10.0 mi Calm Calm - N/A   Clear
2:55 PM 88.0 °F 87.9 °F 60.6 °F 40% 30.18 in 10.0 mi Calm Calm - N/A   Clear
3:15 PM 87.3 °F 87.2 °F 61.0 °F 41% 30.18 in 10.0 mi ENE 3.5 mph - N/A   Clear
3:35 PM 88.2 °F 88.4 °F 61.5 °F 41% 30.18 in 10.0 mi Calm Calm - N/A   Clear
3:55 PM 87.4 °F 87.4 °F 61.2 °F 41% 30.17 in 10.0 mi Calm Calm - N/A   Clear
4:15 PM 87.8 °F 88.2 °F 61.9 °F 42% 30.17 in 10.0 mi Calm Calm - N/A   Clear
4:35 PM 88.0 °F 88.1 °F 61.7 °F 41% 30.17 in 10.0 mi Calm Calm - N/A   Clear
4:55 PM 88.3 °F 88.6 °F 61.9 °F 41% 30.16 in 10.0 mi Calm Calm - N/A   Clear
5:15 PM 88.0 °F 88.7 °F 63.0 °F 43% 30.16 in 10.0 mi Calm Calm - N/A   Clear
5:35 PM 86.9 °F 88.3 °F 64.6 °F 47% 30.16 in 10.0 mi SE 3.5 mph - N/A   Clear
5:55 PM 86.0 °F 87.9 °F 65.5 °F 50% 30.16 in 10.0 mi SE 3.5 mph - N/A   Clear
6:15 PM 85.3 °F 87.1 °F 65.3 °F 51% 30.16 in 10.0 mi ESE 4.6 mph - N/A   Clear
6:35 PM 83.8 °F 86.5 °F 67.3 °F 57% 30.16 in 10.0 mi Calm Calm - N/A   Clear
6:55 PM 82.0 °F 85.3 °F 68.9 °F 64% 30.15 in 10.0 mi Calm Calm - N/A   Clear
7:15 PM 80.1 °F 82.9 °F 69.1 °F 69% 30.15 in 10.0 mi East 3.5 mph - N/A   Clear
7:35 PM 77.9 °F - 69.4 °F 75% 30.15 in 10.0 mi ESE 3.5 mph - N/A   Clear
7:55 PM 76.1 °F - 69.8 °F 81% 30.16 in 10.0 mi East 4.6 mph - N/A   Clear
8:15 PM 74.8 °F - 69.4 °F 83% 30.16 in 10.0 mi East 4.6 mph - N/A   Clear
8:35 PM 73.9 °F - 69.1 °F 85% 30.16 in 10.0 mi East 4.6 mph - N/A   Clear
8:55 PM 73.4 °F - 68.9 °F 86% 30.16 in 10.0 mi ESE 4.6 mph - N/A   Clear
9:15 PM 72.5 °F - 68.5 °F 87% 30.17 in 10.0 mi ESE 3.5 mph - N/A   Clear
9:35 PM 72.3 °F - 68.9 °F 89% 30.17 in 10.0 mi ESE 4.6 mph - N/A   Clear
9:55 PM 72.5 °F - 68.9 °F 88% 30.17 in 10.0 mi ESE 4.6 mph - N/A   Clear
10:35 PM 72.0 °F - 68.5 °F 89% 30.17 in 10.0 mi ESE 4.6 mph - N/A   Clear
10:55 PM 71.4 °F - 68.4 °F 90% 30.16 in 10.0 mi ESE 4.6 mph - N/A   Clear
11:15 PM 70.7 °F - 68.0 °F 91% 30.16 in 10.0 mi ESE 5.8 mph - N/A   Clear
11:35 PM 71.1 °F - 68.0 °F 90% 30.15 in 10.0 mi ESE 4.6 mph - N/A   Clear
11:55 PM 70.9 °F - 67.6 °F 89% 30.15 in 10.0 mi ESE 3.5 mph - N/A   Clear